User: anonymous   Login
Location: Hancock Field Station
(44.9202°N, 120.4259°W)
Time: 12:50:30
(UTC-07:00)
Language:

Nadezhda 4 Rocket - Orbit

View from above orbital plane
View from above orbital plane
View from above satellite
View from above satellite

Ground track
Ground track

The orbit data is extracted from the following two-line orbital elements,

1 23180U 94041B   18146.20641051  .00000018  00000-0  30024-5 0  9994
2 23180  82.9484  35.7825 0028638 345.6507 124.5064 13.77951813200142
Epoch (UTC): 26 May 2018 04:57:13
Eccentricity: 0.0028638
inclination: 82.9484°
perigee height: 950 km
apogee height: 992 km
right ascension of ascending node: 35.7825°
argument of perigee: 345.6507°
revolutions per day: 13.77951813
mean anomaly at epoch: 124.5064°
orbit number at epoch: 20014

The dashed part of the orbit path shows where the satellite is in the earth's shadow,  

DLR